Weather History for KAFP - April, 2013

Change the Weather History Date:

Tuesday, April 23, 2013

  Actual Average (KCLT) Record (KCLT)
Temperature  
Mean Temperature 58 °F 61 °F  
Max Temperature 66 °F 74 °F 91 °F (1980)
Min Temperature 49 °F 49 °F 35 °F (1986)
Degree Days  
Heating Degree Days 8 5  
Month to date heating degree days 169  
Since 1 July heating degree days 3301  
Cooling Degree Days 0 1  
Month to date cooling degree days 22  
Year to date cooling degree days 27  
Growing Degree Days 8 (Base 50)    
Moisture  
Dew Point 47 °F    
Average Humidity 76    
Maximum Humidity 97    
Minimum Humidity 55    
Precipitation  
Precipitation 0.00 in 0.11 in 1.58 in (1883)
Month to date precipitation 2.36  
Year to date precipitation 13.10  
Snow  
Snow 0.00 in 0.00 in 0.00 in ()
Month to date snowfall 0.0  
Since 1 July snowfall 4.3  
Snow Depth -    
Sea Level Pressure  
Sea Level Pressure 30.21 in    
Wind  
Wind Speed 5 mph (NNE)    
Max Wind Speed 12 mph    
Max Gust Speed 21 mph    
Visibility 9 miles    
Events Rain    
T = Trace of Precipitation, MM = Missing Value Source: NWS Daily Summary

Daily Weather History Graph

Daily Weather History Graph

Search for Another Location

Airport or City:

Trip Planner

Search our weather history database for the weather conditions in past years. The results will help you decide how hot, cold, wet, or windy it might be!

Date:

Astronomy

Apr. 23, 2013 Rise Set
Actual Time 6:38 AM EDT 7:59 PM EDT
Civil Twilight 6:11 AM EDT 8:26 PM EDT
Nautical Twilight 5:39 AM EDT 8:57 PM EDT
Astronomical Twilight 5:06 AM EDT 9:31 PM EDT
Moon 5:56 PM EDT (4/23) 4:59 AM EDT (4/23)
Length of Visible Light 14h 14m
Length of Day
13h 21m
Waxing Gibbous, 94% of the Moon is Illuminated
Apr 23
Waxing Gibbous
Apr 25
Full
May 2
Last Quarter
May 9
New
May 18
First Quarter

Hourly Weather History & Observations

Time (EDT) Temp. Dew Point Humidity Pressure Visibility Wind Dir Wind Speed Gust Speed Precip Events Conditions
12:15 AM 55.4 °F 40.8 °F 58% 30.25 in 10.0 mi NNE 5.8 mph - N/A   Overcast
12:35 AM 55.4 °F 41.0 °F 58% 30.25 in 10.0 mi NNE 6.9 mph - N/A   Overcast
12:55 AM 54.9 °F 41.0 °F 60% 30.25 in 10.0 mi North 5.8 mph - N/A   Overcast
1:15 AM 54.7 °F 41.2 °F 60% 30.24 in 10.0 mi North 4.6 mph - N/A   Overcast
1:35 AM 54.5 °F 41.7 °F 62% 30.25 in 10.0 mi NNE 4.6 mph - N/A   Overcast
1:55 AM 54.5 °F 41.9 °F 62% 30.25 in 10.0 mi NNE 4.6 mph - N/A   Overcast
2:15 AM 54.1 °F 42.1 °F 64% 30.24 in 10.0 mi North 9.2 mph - N/A   Overcast
2:35 AM 53.6 °F 42.6 °F 66% 30.23 in 10.0 mi NNE 11.5 mph - N/A   Overcast
2:55 AM 53.1 °F 43.0 °F 69% 30.23 in 10.0 mi NNE 8.1 mph 20.7 mph N/A   Overcast
3:15 AM 52.7 °F 43.3 °F 70% 30.23 in 10.0 mi NNE 6.9 mph - N/A   Overcast
3:35 AM 52.7 °F 43.7 °F 71% 30.23 in 10.0 mi NNE 6.9 mph - N/A   Overcast
3:55 AM 52.0 °F 43.7 °F 73% 30.22 in 10.0 mi NNE 11.5 mph - N/A   Overcast
4:15 AM 50.9 °F 44.6 °F 79% 30.23 in 10.0 mi NNE 6.9 mph - N/A   Overcast
4:35 AM 50.2 °F 45.5 °F 84% 30.23 in 5.0 mi North 6.9 mph - N/A   Overcast
4:55 AM 49.1 °F 46.6 °F 91% 30.23 in 4.0 mi North 3.5 mph - N/A   Overcast
5:15 AM 49.1 °F 46.8 °F 92% 30.23 in 3.0 mi North 3.5 mph - N/A Rain Rain
5:35 AM 49.3 °F 45.7 °F 87% 30.22 in 10.0 mi NNE 4.6 mph - N/A   Light Drizzle
5:55 AM 49.5 °F 45.5 °F 86% 30.22 in 10.0 mi North 5.8 mph - N/A   Overcast
6:15 AM 49.6 °F 44.6 °F 83% 30.22 in 10.0 mi NNE 6.9 mph - N/A   Overcast
6:35 AM 49.6 °F 44.6 °F 83% 30.23 in 10.0 mi North 10.4 mph - N/A   Overcast
6:55 AM 49.6 °F 43.9 °F 81% 30.23 in 10.0 mi North 9.2 mph - N/A   Overcast
7:15 AM 49.5 °F 44.2 °F 82% 30.24 in 7.0 mi North 5.8 mph - N/A   Overcast
7:35 AM 50.0 °F 44.2 °F 81% 30.24 in 10.0 mi North 4.6 mph - N/A   Overcast
7:55 AM 50.2 °F 44.2 °F 80% 30.24 in 10.0 mi North 10.4 mph 16.1 mph N/A   Overcast
8:15 AM 50.2 °F 44.2 °F 80% 30.25 in 10.0 mi North 4.6 mph - N/A   Overcast
8:35 AM 50.5 °F 44.4 °F 80% 30.25 in 10.0 mi NNE 5.8 mph - N/A   Overcast
8:55 AM 50.9 °F 44.6 °F 79% 30.24 in 10.0 mi NNE 8.1 mph - N/A   Overcast
9:15 AM 51.3 °F 44.8 °F 78% 30.24 in 10.0 mi NNE 6.9 mph - N/A   Overcast
9:35 AM 51.8 °F 45.1 °F 78% 30.25 in 10.0 mi North 9.2 mph - N/A   Overcast
9:55 AM 51.8 °F 45.3 °F 79% 30.26 in 10.0 mi North 8.1 mph - N/A   Overcast
10:15 AM 52.2 °F 45.9 °F 79% 30.26 in 10.0 mi North 6.9 mph - N/A   Overcast
10:35 AM 52.5 °F 45.9 °F 78% 30.26 in 10.0 mi North 6.9 mph - N/A   Overcast
10:55 AM 53.2 °F 46.6 °F 78% 30.27 in 10.0 mi North 6.9 mph - N/A   Overcast
11:15 AM 52.9 °F 46.8 °F 80% 30.27 in 10.0 mi North 6.9 mph - N/A   Overcast
11:35 AM 52.5 °F 47.5 °F 83% 30.28 in 5.0 mi North 6.9 mph - N/A   Haze
11:55 AM 53.2 °F 47.5 °F 81% 30.27 in 7.0 mi North 5.8 mph - N/A   Overcast
12:15 PM 54.0 °F 48.4 °F 81% 30.26 in 7.0 mi NNW 8.1 mph - N/A   Overcast
12:35 PM 54.5 °F 48.0 °F 79% 30.26 in 10.0 mi NNW 4.6 mph - N/A   Overcast
12:55 PM 54.5 °F 47.7 °F 78% 30.26 in 10.0 mi NNW 4.6 mph - N/A   Overcast
1:15 PM 54.9 °F 47.8 °F 77% 30.24 in 10.0 mi North 4.6 mph - N/A   Overcast
1:35 PM 55.9 °F 47.8 °F 74% 30.22 in 10.0 mi North 3.5 mph - N/A   Overcast
1:55 PM 58.3 °F 47.8 °F 68% 30.21 in 10.0 mi ENE 3.5 mph - N/A   Overcast
2:15 PM 58.8 °F 48.6 °F 69% 30.21 in 10.0 mi North 5.8 mph - N/A   Overcast
2:35 PM 60.1 °F 49.3 °F 67% 30.20 in 10.0 mi NNW 3.5 mph - N/A   Overcast
2:55 PM 60.8 °F 49.8 °F 67% 30.20 in 10.0 mi Calm Calm - N/A   Mostly Cloudy
3:15 PM 62.1 °F 49.6 °F 64% 30.19 in 10.0 mi SE 3.5 mph - N/A   Scattered Clouds
3:35 PM 62.4 °F 50.0 °F 64% 30.18 in 10.0 mi Calm Calm - N/A   Clear
3:55 PM 64.0 °F 50.0 °F 60% 30.16 in 10.0 mi NNW 3.5 mph - N/A   Clear
4:15 PM 64.4 °F 50.5 °F 61% 30.16 in 10.0 mi Calm Calm - N/A   Clear
4:35 PM 65.1 °F 50.4 °F 59% 30.16 in 10.0 mi Calm Calm - N/A   Clear
4:55 PM 65.5 °F 50.7 °F 59% 30.16 in 10.0 mi Calm Calm - N/A   Clear
5:15 PM 66.4 °F 51.4 °F 59% 30.15 in 10.0 mi Calm Calm - N/A   Clear
5:35 PM 66.0 °F 49.6 °F 55% 30.15 in 10.0 mi East 3.5 mph - N/A   Clear
5:55 PM 66.4 °F 50.5 °F 57% 30.14 in 10.0 mi Calm Calm - N/A   Clear
6:15 PM 66.7 °F 51.4 °F 58% 30.13 in 10.0 mi East 5.8 mph - N/A   Clear
6:35 PM 65.8 °F 51.3 °F 59% 30.13 in 10.0 mi ESE 4.6 mph - N/A   Clear
6:55 PM 65.3 °F 50.0 °F 58% 30.13 in 10.0 mi East 3.5 mph - N/A   Clear
7:15 PM 64.6 °F 51.6 °F 63% 30.13 in 10.0 mi Calm Calm - N/A   Clear
7:35 PM 63.0 °F 52.0 °F 67% 30.14 in 10.0 mi Calm Calm - N/A   Clear
7:55 PM 61.0 °F 52.2 °F 73% 30.14 in 10.0 mi Calm Calm - N/A   Clear
8:15 PM 58.6 °F 53.1 °F 82% 30.14 in 4.0 mi Calm Calm - N/A   Haze
8:35 PM 56.5 °F 52.9 °F 88% 30.15 in 10.0 mi Calm Calm - N/A   Clear
8:55 PM 55.0 °F 52.3 °F 91% 30.15 in 10.0 mi Calm Calm - N/A   Clear
9:15 PM 54.3 °F 52.7 °F 94% 30.16 in 10.0 mi Calm Calm - N/A   Clear
9:35 PM 53.1 °F 51.8 °F 95% 30.16 in 10.0 mi Calm Calm - N/A   Clear
9:55 PM 53.2 °F 52.3 °F 97% 30.16 in 10.0 mi Calm Calm - N/A   Clear
10:15 PM 52.2 °F 51.1 °F 96% 30.16 in 10.0 mi Calm Calm - N/A   Clear
10:35 PM 52.0 °F 50.9 °F 96% 30.16 in 10.0 mi Calm Calm - N/A   Clear
10:55 PM 51.3 °F 50.4 °F 97% 30.16 in 5.0 mi Calm Calm - N/A   Clear
11:15 PM 50.9 °F 50.0 °F 97% 30.15 in 7.0 mi Calm Calm - N/A   Clear
11:35 PM 50.9 °F 50.2 °F 97% 30.15 in 7.0 mi Calm Calm - N/A   Clear
11:55 PM 50.2 °F 49.5 °F 97% 30.15 in 7.0 mi Calm Calm - N/A   Clear